伽利略0210星导航星座 (GSAT0210 (GALILEO 13))

导读

GALILEO 13(26A)是欧洲空间局(ESA)伽利略全球卫星导航系统的组网卫星,于2016年5月24日发射升空。作为欧盟主导的伽利略计划的重要组成部分,该卫星承担全球定位、导航与授时服务任务,助力伽利略系统实现全球覆盖,为民用用户提供高精度定位服务,提升欧洲在全球卫星导航领域的自主能力与市场竞争力。

Basic Information
目录编号:
41550
目录名称:
GALILEO 13 (26A)
国际标识:
2016-030B
轨道中心:
EARTH
卫星名称:
伽利略0210星
卫星全名:
伽利略0210星导航星座 (GSAT0210 (GALILEO 13))
卫星状态:
在轨 (已飞行3762 天)
发射日期:
2016-05-24 UTC
国别 :
(ESA)
星等 :
--
This satellite is enrolled in the Space Conjunction Data Service (SCDS) and the current flight risk assessment level is: No High Risk
Orbit Information
数据来源 国际轨道数据 AOE轨道数据
星历时间 2026-09-09T20:31:01+0800
2天前
查看轨道信息
2026-09-10T03:00:00+0800
1天前
查看轨道信息
半长轴 29600.378km 29600.39km
偏心率 0.0004134 0.0004069
轨道倾角 55.076° 55.076°
近地点辐角 253.070° 253.650°
升交点赤经 219.374° 219.367°
平近点角 106.836° 272.041°
近地点 23210.004km 23210.208km
远地点 23234.478km 23234.298km
周期 844.706分钟 844.707分钟
每日圈数 1.704735 1.704734
Detailed Information
平衡模式:
三轴稳定
覆盖范围:
全球
运营商:
欧盟空间计划局
运营商所在国:
法国大都会
使用方式:
暂无
Satellite Introduction
伽利略定位系统(Galileo)是一个全球导航卫星系统,于2016年投入使用由欧盟通过ESA创建,由欧盟空间计划局(EUSPA)运营。该系统有两个地面操控站,并且在高纬度地区提供比其他系统更好的定位服务。该卫星仍在工作。
2D Orbit Map
3D Orbit Map
Orbit Altitude Analysis Chart
Orbit Inclination Analysis Chart
Orbit Comprehensive Analysis Chart
View Comprehensive Chart
Miss Distance Evolution Trend with All Objects
Collision Probability Evolution Trend with All Objects